Location: Newark
(57.4820°N, 4.1923°W)
Time: 12:44:36
(UTC+00:00)

Envisat - Visible Passes

Search period start: 17 September 2019 00:00
Search period end: 27 September 2019 00:00
Orbit: 764 x 766 km, 98.1° (Epoch: 17 September)

Date Brightness Start Highest point End Pass type
(mag) Time Alt. Az. Time Alt. Az. Time Alt. Az.
17 Sep 5.8 19:40:48 10° SW 19:44:33 20° W 19:48:19 10° NW visible
18 Sep 4.9 19:02:43 10° SSW 19:07:23 36° W 19:12:05 10° NNW visible
19 Sep 6.1 20:08:00 10° WSW 20:10:28 13° W 20:12:57 10° NW visible
20 Sep 5.6 19:29:03 10° SW 19:33:09 24° W 19:37:16 10° NW visible
21 Sep 4.5 18:51:13 10° SSW 18:56:02 42° W 19:00:53 10° NNW visible
22 Sep 6.0 19:55:55 10° WSW 19:59:01 16° W 20:02:10 10° NW visible
23 Sep 5.3 19:17:24 10° SSW 19:21:46 28° W 19:26:10 10° NNW visible
24 Sep 4.1 18:39:46 10° S 18:44:42 50° W 18:49:41 10° NNW visible
24 Sep 6.5 20:24:16 10° W 20:25:00 10° WNW 20:25:44 10° WNW visible
25 Sep 5.9 19:44:00 10° SW 19:47:36 19° W 19:51:13 10° NW visible
26 Sep 4.9 19:05:49 10° SSW 19:10:24 33° W 19:15:02 10° NNW visible
